GEESAT-5 08

Last updated on Sun Sep 21 2025 00:02:08 GMT+0000 (Coordinated Universal Time)

1 65557U 25201H 25258.43699944 .00005148 00000+0 52735-3 0 9990 2 65557 49.9816 234.2170 0013316 323.8512 36.1528 14.91824266 990
UTC large
Height (km)
Speed (km/s)
/
Latitude / Longitude
Inclination (degrees)
Orbital Period (minutes)
Azimuth
Elevation
Range (km)
Doppler Factor

Next 0 passes for location: London (51.5072 / 0.1276)

Sorry there are no passes over London.